Regional Weather Roundup
Issued by NWS Wakefield, VA

Home | Current Version | Previous Version | Graphics & Text | Print | Product List | Glossary On
Versions: 1 2 3 4 5 6 7 8 9 10 11 12 13 14 15 16 17 18 19 20 21 22 23 24 25 26 27 28 29 30 31 32 33 34 35 36 37 38 39 40 41 42 43 44 45 46 47 48 49 50
000
ASUS41 KAKQ 210510
RWRAKQ

REGIONAL WEATHER ROUNDUP
NATIONAL WEATHER SERVICE WAKEFIELD VA
100 AM EDT SUN SEP 21 2014

Note: "fair" indicates few or no clouds below 12,000 feet with no
significant weather and/or obstructions to visibility. * = Denotes
station may not report precipitation (e.g., rain,snow,etc.),
thunder or fog.

VAZ042-051-052>054-056-210600-
NORTHERN VIRGINIA

CITY           SKY/WX    TMP DP  RH WIND       PRES   REMARKS
WASH NATIONAL  PTCLDY    70  60  70 CALM      30.03F
DULLES         CLEAR     58  58 100 CALM      30.04F
FORT BELVOIR   CLEAR     61  60  96 NW1       30.03F
QUANTICO       PTCLDY    64  61  90 NW9       30.03F
FREDERICKSBRG* PTCLDY    62  62 100 W3        30.03F
STAFFORD*      PTCLDY    58  58 100 CALM      30.08F
WARRENTON        N/A     55  55 100 CALM      30.03F FOG
CULPEPER*      CLEAR     59  57  94 CALM      30.05F
MANASSAS*      CLEAR     59  59 100 CALM      30.04F
LEESBURG*      CLEAR     63  61  94 W3        30.04F
WINCHESTER     MOCLDY    64  57  77 S3        30.03F
FRONT ROYAL*   CLEAR     61  55  82 S5        30.03F
LURAY*         CLEAR     59  59 100 SE5       30.04F
$$

VAZ048-049-060>072-079>083-210600-
CENTRAL AND SOUTH CENTRAL VIRGINIA...AND NORTH CENTRAL NORTH CAROLINA

CITY           SKY/WX    TMP DP  RH WIND       PRES   REMARKS
RICHMOND       CLOUDY    66  63  90 N5        30.01F
CHESTERFIELD*  CLOUDY   N/A N/A N/A CALM      30.02F
PETERSBURG*    CLOUDY    66  63  90 N6        30.01F
HANOVER        MOCLDY    62  61  96 CALM      30.04F
TAPPAHANNOCK*  MOCLDY    63  61  91 CALM      30.03F
CHARLOTTSVILLE CLEAR     61  57  87 CALM      30.04F
ORANGE*        CLEAR     59  55  88 CALM      30.05F
LOUISA*        PTCLDY    59  57  94 CALM      30.04F FOG
FARMVILLE*     MOCLDY    64  63  94 N5        30.02F
CREWE*         MOCLDY    63  60  90 CALM      30.02F
FORT PICKETT*  MOCLDY    64  63  96 N5        30.01F
LUNENBURG*     MOCLDY    64  63  94 N5        30.02S
SOUTH HILL*    MOCLDY    66  66 100 N6        30.05F
LAWRENCEVILLE* MOCLDY    65  64  96 N5        29.99F
ROANOKE RAPIDS CLOUDY    66  64  94 N7        29.98S
RALEIGH        CLOUDY    66  61  84 N3        29.99F
$$

VAZ088>098-210600-
SOUTHEAST VIRGINIA

CITY           SKY/WX    TMP DP  RH WIND       PRES   REMARKS
NORFOLK        CLOUDY    73  70  90 N3        29.95F
VIRGINIA BEACH CLOUDY    71  69  93 N5        29.95F
NORFOLK NAVAL  CLOUDY    74  70  87 N8        29.97F
WEST POINT*    CLOUDY    69  65  89 N3        30.02F
NEWPORT NEWS   CLOUDY    73  68  84 N5        29.97F
LANGLEY AFB    CLOUDY    71  71 100 N6        29.96F
FORT EUSTIS    CLOUDY    70 N/A N/A N7        29.96F
WILLIAMSBURG*  CLOUDY    70  66  88 N5        30.00F
HR EXEC AP*    CLOUDY    66  64  94 CALM      29.98F
FRANKLIN*      CLOUDY    66  66 100 CALM      29.97F
WAKEFIELD      CLOUDY    68  64  87 N3        29.99F
$$

VAZ020-022-025-037-045-210600-
WEST CENTRAL AND SOUTHWEST VIRGINIA

CITY           SKY/WX    TMP DP  RH WIND       PRES   REMARKS
STAUNTON*      CLEAR     54  50  88 CALM      30.08F
HOT SPRINGS VA CLEAR     57  39  52 S7        30.16F
LYNCHBURG      PTCLDY    59  59 100 CALM      30.07F
DANVILLE       PTCLDY    62  58  86 NE5       30.03F
SOUTH BOSTON*  NOT AVBL
MARTINSVILLE   PTCLDY    57  57 100 CALM      30.07F FOG
ROANOKE        CLEAR     59  57  93 CALM      30.08F
BLACKSBURG     PTCLDY    55  55 100 CALM      30.12F
DUBLIN*        CLEAR     57  57 100 CALM      30.11F FOG
MARION*        CLEAR     56  54  95 CALM      30.14F FOG
HILLSVILLE*    CLEAR     56  55  95 S3        30.11F
RICHLANDS*     CLEAR     62  58  87 SE5       30.10F
WISE*          CLEAR     59  59 100 S3        30.10F
ABINGDON*      CLEAR     61  58  90 CALM      30.09F
$$

MDZ021>025-VAZ099-100-210600-
SOUTHERN MARYLAND AND THE DELMARVA PENINSULA

CITY           SKY/WX    TMP DP  RH WIND       PRES   REMARKS
PATUXENT RIVER CLOUDY    70  65  84 NE3       30.02F
BAY BRIDGE APT   N/A     64  63  94 CALM      30.03F
LEONARDTOWN    CLOUDY    63  59  88 CALM      30.03F
DOVER          CLOUDY    68  68 100 NW3       30.00F
GEORGETOWN     CLOUDY    70  66  87 E6        30.02F
EASTON         CLOUDY    67  67 100 CALM      30.06F
CAMBRIDGE      CLOUDY    70  64  83 N3        30.01F
SALISBURY      CLOUDY    71  67  87 N8        30.01S
OCEAN CITY     CLOUDY   N/A N/A N/A CALM      29.99F
WALLOPS ISLAND CLOUDY    70  68  93 N5        29.99F
ACCOMACK*      CLOUDY    68  64  88 N5        29.98F FOG
$$

NCZ012>017-030>032-210600-
EASTERN NORTH CAROLINA

CITY           SKY/WX    TMP DP  RH WIND       PRES   REMARKS
ELIZABETH CITY CLOUDY    72  70  93 NE6       29.93F
AHOSKIE*       CLOUDY    67  65  94 N5        29.96F
EDENTON*       DRIZZLE   70  69  97 N5        29.93F
CURRITUCK*     CLOUDY    73  68  85 CALM      29.95S
KILL DEVIL HLS RAIN      73  70  91 E3        29.91F
MANTEO         CLOUDY    72  69  92 E7        29.91F
CAPE HATTERAS  LGT RAIN  70  70 100 VRB3      29.87F FOG
TARBORO*       CLOUDY    68  65  92 N5        29.96F
GOLDSBORO      CLOUDY    69  69  98 CALM      29.91F
WASHINGTON     CLOUDY    69  68  97 N8        29.92F
GREENVILLE     LGT RAIN  70  68  94 N8        29.95F
NEW BERN       CLOUDY    73  70  88 N8        29.88F
WILMINGTON     CLOUDY    69  68  96 N9        29.85F
$$

VAZ048-210600-
ELSEWHERE

CITY           SKY/WX    TMP DP  RH WIND       PRES   REMARKS
HARRISBURG PA  CLEAR     63  59  87 E3        30.03F
BALTIMORE      PTCLDY    62  59  90 CALM      30.03F
ANNAPOLIS      PTCLDY    67  64  90 CALM      30.02F
ANDREWS AFB    CLEAR     61  60  96 CALM      30.03F
WILMINGTON DE  CLOUDY    67  64  90 NW5       30.05F
PHILADELPHIA   CLOUDY    69  64  84 W5        30.04F
WILDWOOD NJ*   CLOUDY    68  64  88 CALM      30.02F
ATLANTIC CITY  CLOUDY    68  66  93 MISG      30.02F
HENDERSON NC   CLOUDY    64  62  91 NE3       30.00F
GREENSBORO     MOCLDY    64  58  80 N3        30.03F
ROCKY MOUNT    CLOUDY    68  65  90 N9        29.96F
FAYETTEVILLE   CLOUDY    71  65  81 N14       29.94S
CHARLOTTE      PTCLDY    64  60  87 N7        30.03F
$$

VAZ100-210600-
MARINE

STATION/POSITION TIME  TEMP    WIND        PRES    WAVE   SWELL
                       AIR SEA DIR/SP/G            HT/PER HT/PER
                 (UTC) (F)     (DEG/KT/KT) (MB)    (FT/S) (FT/S)
44066 TX TWR #4  0500   74 72  140/ 14/ 16 1016.8F   5/ 8   3/ 8
CAPE MAY NJ      0500   70 75   20/  2/  3 1016.0F
LEWES DE         0500   71 72  320/  4/  4 1016.0F
15NM E FENWICK I 0500   72 72              1015.6F   5/ 9
OCEAN-CITY-INLET 0500   72 71  340/  2/  2 1015.3F
WACHAPREAGUE VA  0500   70 74  320/  3/  5 1015.2F
THOMAS POINT MD  0500   69 74   CALM  /  1 1017.8F
GOOSES REEF MD   0500   70     120/  4/  8 1017.4S
COVE POINT MD    0500   69      60/  2/  3 1016.6F
SOLOMONS ISLAND  0500      76                N/A
BISHOPS HEAD MD  0500   69 73  350/  4/  6 1015.9F
PINEY POINT MD   0500           20/  6/  7   N/A
POTOMAC MD       0500   72      10/  6/  8 1015.8F
CAMBRIDGE MD     0500   69 74   20/  4/  5 1016.4F
LEWISETTA VA     0500   71 74   10/  3/  5 1015.8F
RAPPAHANNOCK LGT 0500          350/  7/  8 1015.9F
STINGRAY PT      0500   73      10/  6/  8   N/A
YORK RVR RNG VA  0500   72     360/ 12/ 13 1014.6F
YORKTOWN VA      0500   70 76  340/ 10/ 11 1015.0F
JAMESTOWN VA     0500   67      20/  6/  8   N/A
DOMINION TERM VA 0500   72     360/  5/  6 1014.9F
KIPTOPEKE VA     0500      78   30/  5/  7   N/A
CHES BAY BRIDGE  0500   74 75   20/  5/  6 1014.0F
CAPE HENRY VA    0500   74      50/  5/  5 1013.3F
CHESAPEAKE LGHT  0400   74      90/ 11/ 11 1015.1F
WILLOUBY STN VA  0500   72     360/  7/  8 1013.4F
S CRANEY ISL VA  0500          340/  5/  6 1014.4F
CAPE HENRY BUOY  0500      75                N/A     5/ 9   2/11
1ST LANDING BUOY 0500   74      50/  6/  8 1014.3F
CAPE CHARLES BUO 0500      74                N/A     5/ 9   5/ 9
OFFSHORE WE BUOY 0500      74                N/A     7/ 9   7/ 9
64NM E OF VA BCH 0500   77 77   90/  8/ 10 1013.5F   7/10   7/10
DUCK PIER NC     0500   74 74   70/  8/  9 1012.6F
44100 DUCK FRF   0500      74                N/A     6/10   2/11
44056 DUCK FRF   0500                        N/A     6/11   2/11
OREGON INLET NC  0500   73 73  100/  8/ 12 1012.6F
HATTERAS NC      0500   72 75   40/ 10/ 14 1011.9S
DIAMOND SHLS NC  0500   78     110/ 19/ 25 1010.2F   8/ 7
CAPE LOOKOUT NC  0400   72      30/ 24/ 29 1010.6F
$$


USA.gov is the U.S. government's official web portal to all federal, state and local government web resources and services.